Regional Weather Roundup
Issued by NWS

Home | Current Version | Previous Version | Text Only | Print | Product List | Glossary On
Versions: 1 2 3 4 5 6 7 8 9 10 11 12 13 14 15 16 17 18 19 20 21 22 23 24 25 26 27 28 29 30 31 32 33 34 35 36 37 38 39 40 41 42 43 44 45 46 47 48 49 50
895
ASUS43 KLOT 080003
RWRIL

ILLINOIS REGIONAL WEATHER ROUNDUP
NATIONAL WEATHER SERVICE CHICAGO/ROMEOVILLE IL
600 PM CST SUN FEB 07 2016

NOTE: "FAIR" INDICATES FEW OR NO CLOUDS BELOW 12,000 FEET WITH NO
SIGNIFICANT WEATHER AND/OR OBSTRUCTIONS TO VISIBILITY.

* THESE STATIONS ARE NOT UNDER NWS QUALITY CONTROL. THEY ALSO MAY NOT
  REPORT WEATHER SUCH AS PRECIPITATION OR FOG.

ILZ001-002-007-009-015-016-024-080100-
NORTHWEST ILLINOIS

CITY           SKY/WX    TMP DP  RH WIND       PRES   REMARKS
MOLINE         CLEAR     39  27  62 W12       29.81R WCI  32
6HR MIN TEMP:  39; 6HR MAX TEMP:  47;

STERLING*      CLEAR     37  27  65 W14       29.77R WCI  29
$$

ILZ003-004-008-010-011-017-018-080100-
NORTH CENTRAL ILLINOIS

CITY           SKY/WX    TMP DP  RH WIND       PRES   REMARKS
ROCKFORD       PTCLDY    37  27  67 W9        29.78R WCI  30
6HR MIN TEMP:  37; 6HR MAX TEMP:  45;

FREEPORT*      CLEAR     35  28  75 W9        29.78R WCI  28
DE KALB*       CLEAR     37  29  71 W13       29.77S WCI  29
$$

ILZ005-006-012>014-019>023-080100-
NORTHEAST ILLINOIS

CITY           SKY/WX    TMP DP  RH WIND       PRES   REMARKS
CHICAGO-OHARE  PTCLDY    40  30  67 W12G21    29.75R
6HR MIN TEMP:  40; 6HR MAX TEMP:  43;

CHICAGO-MIDWAY PTCLDY    43  30  60 W13       29.76R
6HR MIN TEMP:  43; 6HR MAX TEMP:  46;

AURORA         CLEAR     37  29  72 W10       29.77R WCI  30
6HR MIN TEMP:  37; 6HR MAX TEMP:  45;

LANSING*       PTCLDY    40  32  74 SW9       29.77S
WAUKEGAN       CLEAR     39  30  70 W9        29.71R WCI  33
6HR MIN TEMP:  39; 6HR MAX TEMP:  42;

DUPAGE AIRPORT CLEAR     38  28  67 W12       29.76R WCI  30
6HR MIN TEMP:  38; 6HR MAX TEMP:  43;

WHEELING       CLEAR     41  29  62 W12       29.75R
6HR MIN TEMP:  41; 6HR MAX TEMP:  44;

NORTHERLY ISL    N/A     43  32  65 W9          N/A
$$

LMZ740>746-080100-
SOUTHERN LAKE MICHIGAN

STATION/POSITION SKY/WX   TEMP    WIND        PRES    VSBY  WAVE
                          AIR SEA DIR/SP/G                  HT/PER
                          (F)     (DEG/KT/KT) (MB)    (MI)  (FT/S)
HARRISON CRIB              44     240/ 16/ 21   N/A
BURNHAM HARBOR             42     230/  7/ 13   N/A
CALUMET HARBOR             43     230/ 10/ 14 1006.9R
BURNS HARBOR               43     240/ 15/ 21 1008.5R
MICHIGAN CITY              43     200/ 15/ 17   N/A
$$

ILZ025>027-034>036-040-047-049-050-058-095>099-080100-
WEST-CENTRAL ILLINOIS

CITY           SKY/WX    TMP DP  RH WIND       PRES   REMARKS
QUINCY         LGT RAIN  40  32  73 W9G30     29.89R
MACOMB*        PTCLDY    36  28  73 NW7       29.86S WCI  31
$$

ILZ028>032-037-038-041>044-048-051>054-059>061-080100-
CENTRAL ILLINOIS

CITY           SKY/WX    TMP DP  RH WIND       PRES   REMARKS
BLOOMINGTON    CLEAR     41  32  70 W8        29.83S
DECATUR        CLEAR     43  31  62 SW7       29.86R
PEORIA         CLEAR     42  26  53 W7        29.83S
6HR MIN TEMP:  42; 6HR MAX TEMP:  49;

LINCOLN*       MOCLDY    44  31  59 W6        29.84S
SPRINGFIELD    CLOUDY    43  32  65 W6        29.86R
6HR MIN TEMP:  42; 6HR MAX TEMP:  49;

TAYLORVILLE    NOT AVBL
$$

ILZ033-039-045-046-055>057-062-063-080100-
EAST-CENTRAL ILLINOIS

CITY           SKY/WX    TMP DP  RH WIND       PRES   REMARKS
CHAMPAIGN      CLEAR     39  33  79 W10       29.84S WCI  32
MATTOON        CLEAR     43  31  62 W14       29.85R
$$

ILZ079-100>102-080100-
SOUTHWEST ILLINOIS

CITY           SKY/WX    TMP DP  RH WIND       PRES   REMARKS
ALTON          CLOUDY    45  32  61 SW7       29.90S
CAHOKIA*       CLOUDY    50  28  42 W7        29.90S
SPARTA*        PTCLDY    48  29  48 W5        29.92R
$$

ILZ064>066-069>071-074>076-080>082-084>086-088>090-092>094-080100-
SOUTH-CENTRAL ILLINOIS

CITY           SKY/WX    TMP DP  RH WIND       PRES   REMARKS
CARBONDALE     CLOUDY    51  27  39 W8        29.90S
6HR MIN TEMP:  51; 6HR MAX TEMP:  57;

MARION         MOCLDY    50  32  50 SW6       29.91R
MT. VERNON     PTCLDY    48  27  43 W5        29.89S
CENTRALIA*     PTCLDY    47  33  59 W9        29.88S
SALEM*         PTCLDY    46  32  57 W6        29.88S
$$

ILZ067-068-072-073-078-083-087-091-080100-
SOUTHEAST ILLINOIS

CITY           SKY/WX    TMP DP  RH WIND       PRES   REMARKS
LAWRENCEVILLE  MOCLDY    49  31  49 W8        29.86S
HARRISBURG*    PTCLDY    49  32  52 SW6       29.89S
ROBINSON*      PTCLDY    48  31  52 W13G20    29.86S
CARMI*         PTCLDY    50  32  50 SW9       29.87S
$$

ABBREVIATIONS USED IN REMARKS
   TC - TEMPERATURE IN CELSIUS
  WCI - WIND CHILL INDEX
   HX - HEAT INDEX
  VSB - VISIBILITY
$$





USA.gov is the U.S. government's official web portal to all federal, state and local government web resources and services.